Location: Banff
(51.1667°N, 115.5667°W)
Time: 23:01:12
(UTC+00:00)

Courier 1B Rocket - Visible Passes

Search period start: 25 November 2020 00:00
Search period end: 05 December 2020 00:00
Orbit: 920 x 1202 km, 28.2° (Epoch: 25 November)

Date Brightness Start Highest point End Pass type
(mag) Time Alt. Az. Time Alt. Az. Time Alt. Az.
29 Nov 7.8 14:44:50 10° SSW 14:47:00 11° S 14:49:09 10° SSE visible
30 Nov 7.8 13:44:31 10° S 13:46:18 11° S 13:48:05 10° SSE visible
01 Dec 7.7 14:35:17 10° SSW 14:37:36 11° S 14:39:54 10° SSE visible
02 Dec 7.6 13:34:25 10° SSW 13:36:53 12° S 13:39:21 10° SSE visible
03 Dec 7.6 12:34:12 10° S 12:36:10 11° S 12:38:10 10° SSE visible
03 Dec 7.7 14:26:26 10° SSW 14:28:11 11° S 14:29:54 10° S visible
04 Dec 7.5 13:25:01 10° SSW 13:27:28 12° S 13:29:55 10° SSE visible
